Regional Weather Roundup
Issued by NWS Jackson, KY

Home | Current Version | Previous Version | Text Only | Print | Product List | Glossary Off
Versions: 1 2 3 4 5 6 7 8 9 10 11 12 13 14 15 16 17 18 19 20 21 22 23 24 25 26 27 28 29 30 31 32 33 34 35 36 37 38 39 40 41 42 43 44 45 46 47 48 49 50

373
ASUS43 KJKL 270410
RWRJKL

EAST KENTUCKY HOURLY WEATHER ROUNDUP
NATIONAL WEATHER SERVICE JACKSON KY
1200 AM EDT FRI MAY 27 2016

NOTE: "FAIR" INDICATES FEW OR NO CLOUDS BELOW 12,000 FEET WITH
NO SIGNIFICANT WEATHER AND/OR OBSTRUCTIONS TO VISIBILITY.

* THESE REPORTS ARE NOT UNDER NWS QUALITY CONTROL AND MAY NOT
  REPORT WEATHER SUCH AS PRECIPITATION AND FOG.

KYZ079-080-083-085-087-088-110-112-115-119-120-270500
...EASTERN KENTUCKY...

CITY           SKY/WX    TMP DP  RH WIND       PRES   REMARKS
JACKSON        PTCLDY    67  61  81 CALM      30.09S
LONDON         CLOUDY    65  60  84 CALM      30.08R
SOMERSET*      PTCLDY    61  61 100 CALM      30.07S
MONTICELLO*    CLOUDY    65  62  90 E7        30.07S
WILLIAMSBURG*  CLOUDY    63  59  88 SE6       30.08S
MIDDLESBORO*   CLEAR     63  61  93 CALM      30.11R
HARLAN APT*      N/A     63  61  94 CALM      30.11S
HAZARD APT*    CLEAR     64  64 100 CALM      30.10R
BLACK MTN*       N/A    N/A N/A N/A S7          N/A
PIKE CO APT*     N/A     69  64  84 CALM      30.11R
MOREHEAD APT*  CLOUDY    64  63  94 SE5       30.09S
ASHLAND*       CLOUDY    66  64  94 CALM      30.04S
$$

KYZ035-036-041-042-044-050-067-078-099-270500
...CENTRAL KENTUCKY...

CITY           SKY/WX    TMP DP  RH WIND       PRES   REMARKS
MT STERLING*   CLOUDY    63  63 100 S3        30.07F
FLEMING/MASON* PTCLDY    64  64  97 S8        30.06S FOG
DANVILLE*      CLOUDY    61  61 100 S3        30.06S
RICHMOND*      CLOUDY    63  61  94 SE5       30.06S
LEXINGTON      PTCLDY    64  62  93 SE7       30.05S
FRANKFORT      MOCLDY    65  62  90 SE6       30.02F
LOUISVILLE     CLOUDY    68  63  84 S5        30.01S
LEBANON*         N/A     64  64 100 S3        30.04R
GLASGOW*       CLOUDY    66  66 100 S3        30.00F
BOWLING GREEN  CLOUDY    68  64  87 W3        30.00R
$$

KYZ091>093-OHZ055-061-077-WVZ005-015-034-035-042-270500
...SOUTHERN OHIO/WEST VIRGINIA...

CITY           SKY/WX    TMP DP  RH WIND       PRES   REMARKS
COVINGTON      CLOUDY    66  63  90 SW7       30.02S
COLUMBUS       MOCLDY    71  66  84 S6        30.03S
DAYTON         CLOUDY    67  62  84 S7        30.03S
WILMINGTON     CLOUDY    65  63  93 S6        30.03F
HUNTINGTON     MOCLDY    69  65  86 SW3       30.07R
CHARLESTON       N/A     67  62  84 CALM      30.07R
PINEVILLE*       N/A     62  58  89 MISG      30.18R
BECKLEY          N/A     65  59  81 S6        30.16R
BLUEFIELD        N/A     63  57  81 S5        30.18R
LOGAN CO APT*    N/A     70  63  78 S5        30.10S
$$

VAZ002-007-008-TNZ017-027-036-066-071-270500
...SOUTHWEST VIRGINIA/EAST TENNESSEE...

CITY           SKY/WX    TMP DP  RH WIND       PRES   REMARKS
WISE*            N/A     63  59  88 SW6       30.18R
JONESVILLE*      N/A     63  63 100 CALM      30.14S
ABINGDON*        N/A     63  62  97 CALM      30.16S FOG
BRISTOL        PTCLDY    64  61  90 CALM      30.13R
SEVIERVILLE*   CLEAR     66  64  94 CALM      30.08F
KNOXVILLE      CLEAR     70  63  78 E3        30.07F
OAK RIDGE      CLEAR     69  63  81 CALM      30.09F
CROSSVILLE     CLOUDY    68  61  78 S3        30.11F
NASHVILLE      CLOUDY    70  64  81 S8        30.01F
$$

...KEY TO REMARKS...
VSB - VISIBILITY IN MILES
WCI - WIND CHILL INDEX
HX  - HEAT INDEX

$$




USA.gov is the U.S. government's official web portal to all federal, state and local government web resources and services.